Погода в Новопавловке

Россия / Оренбургская область     51°08′26″N   55°35′57″E
темп.,
°C
ветер,
м/с
пор.,
м/с
влажн.,
%
обл.,
%
осадки,
мм/ч
давл.,
гПа
погр.,
м
27 июля, вт
вт2723:00+18ссз33360 0.0 102028
02:00+16ссз22434 0.0 101913
05:00+15ссз22480 0.0 101916
08:00+18с23402 0.0 1019194
11:00+23с35270 0.0 10182138
14:00+26ссз46241 0.0 10172719
17:00+27ссз662214 0.0 10153036
20:00+25ссв342796 0.0 1014121
28 июля, ср
ср2823:00+19ссз34375 0.0 101549
02:00+18с22455 0.0 101411
05:00+16з11515 0.0 101411
08:00+20сз344442 0.0 1014280
11:00+24ссз453911 0.0 10131637
14:00+26сз563168 0.0 10122691
17:00+27сз77235 0.0 10113164
20:00+24ссз79271 0.0 1012833
29 июля, чт
чт2923:00+18с49350 0.0 1014166
02:00+16св34400 0.0 101550
05:00+14св22460 0.0 101511
08:00+18в11363 0.0 1015161
11:00+23зсз23255 0.0 10161832
14:00+26зсз34198 0.0 10142380
17:00+28з34175 0.0 10132686
20:00+26юз472114 0.0 1012204
30 июля, пт
пт3023:00+21ю452668 0.0 101264
02:00+22ююз61424100 0.0 1011411
05:00+22ююз7172210 0.0 1010541
08:00+25юз9162239 0.0 1010945
11:00+30з8112466 0.1 10091525
14:00+32з91330100 0.0 10082893
17:00+30зсз693498 0.2 10081002
20:00+23з5116410 0.6 1009310
31 июля, сб
сб3123:00+21юз497663 3.1 1010183
02:00+21ссз337179 0.1 101031
05:00+21ююз2273100 0.1 101118
08:00+23ююз2365100 0.1 1012134
11:00+27юз2249100 0.1 1012644
14:00+23ююв3464100 0.1 1012176
17:00+28юв224199 0.1 10111253
20:00+28вюв344586 0.2 1011167